Le nostre stazioni meteo in Italia

Pubblicità
Il mio iltempo24.it
Ancona, Italia (16190): Temperatura & dewpoint: 07.12.2018 22:00:00 - 13.12.2018 22:00:00 (CET)Ancona, Italia (16190): reduced air pressure: 07.12.2018 22:00:00 - 13.12.2018 22:00:00 (CET)Ancona, Italia (16190): precipitazioni: 07.12.2018 22:00:00 - 13.12.2018 22:00:00 (CET)
Data & Tempo tt [°C] td [°C] ppp [hPa] rr [mm]
13.12.2018 22:00:00 - - - -
13.12.2018 21:00:00 3,4 3,1 1007,8 -
13.12.2018 20:00:00 3,4 3,3 1007,8 -
13.12.2018 19:00:00 3,2 3,1 1008,0 0,0
13.12.2018 18:00:00 3,4 3,1 1008,1 -
13.12.2018 17:00:00 3,3 2,9 1008,2 -
13.12.2018 16:00:00 3,3 2,9 1008,3 -
13.12.2018 15:00:00 3,4 3,0 1008,2 -
13.12.2018 14:00:00 3,4 2,8 1008,5 -
13.12.2018 13:00:00 3,5 2,9 1008,8 0,0
13.12.2018 12:00:00 3,6 3,0 1009,3 -
13.12.2018 11:00:00 3,3 2,6 1010,2 -
13.12.2018 10:00:00 3,4 2,5 1010,5 -
13.12.2018 09:00:00 3,7 2,5 1010,5 -
13.12.2018 08:00:00 3,4 1,7 1010,4 -
13.12.2018 07:00:00 4,3 -0,4 1010,2 0,0
13.12.2018 06:00:00 4,0 1,0 1010,1 -
13.12.2018 05:00:00 4,5 2,2 1010,7 -
13.12.2018 04:00:00 5,5 2,8 1011,2 -
13.12.2018 03:00:00 6,1 2,7 1012,0 -
13.12.2018 02:00:00 5,5 3,6 1012,6 -
13.12.2018 01:00:00 4,7 2,4 1013,3 0,0
13.12.2018 00:00:00 4,9 0,0 1013,4 -
12.12.2018 23:00:00 4,9 0,0 1013,7 -
12.12.2018 22:00:00 4,0 1,8 1014,0 -
12.12.2018 21:00:00 4,7 2,4 1014,0 -
12.12.2018 20:00:00 4,4 2,4 1014,3 -
12.12.2018 19:00:00 4,8 2,5 1014,4 0,0
12.12.2018 18:00:00 6,0 1,7 1014,2 -
12.12.2018 17:00:00 6,6 1,2 1014,1 -
12.12.2018 16:00:00 8,7 2,0 1014,4 -
12.12.2018 15:00:00 8,5 2,0 1014,3 -
12.12.2018 14:00:00 8,5 3,7 1014,1 -
12.12.2018 13:00:00 7,5 0,6 1014,7 0,0
12.12.2018 12:00:00 8,3 -0,3 1015,2 -
12.12.2018 11:00:00 8,8 1,1 1015,6 -
12.12.2018 10:00:00 7,4 -0,2 1015,8 -
12.12.2018 09:00:00 6,0 -0,2 1015,6 -
12.12.2018 08:00:00 5,1 -1,2 1015,5 -
12.12.2018 07:00:00 5,3 -1,0 1014,9 0,0
12.12.2018 06:00:00 5,6 -0,5 1014,9 -
12.12.2018 05:00:00 5,5 -0,6 1014,8 -
12.12.2018 04:00:00 5,4 -0,9 1015,0 -
12.12.2018 03:00:00 5,0 -1,3 1015,2 -
12.12.2018 02:00:00 5,3 -1,7 1014,8 -
12.12.2018 01:00:00 5,0 -1,1 1014,7 0,0
12.12.2018 00:00:00 4,6 -1,3 1014,9 -
11.12.2018 23:00:00 4,6 -1,3 1014,7 -
11.12.2018 22:00:00 5,5 -2,2 1014,5 -
11.12.2018 21:00:00 5,1 -2,1 1014,6 -
11.12.2018 20:00:00 5,0 -1,1 1014,6 -
11.12.2018 19:00:00 5,8 -0,4 1015,4 0,0
11.12.2018 18:00:00 6,6 2,2 1014,5 -
11.12.2018 17:00:00 6,7 2,3 1014,1 -
11.12.2018 16:00:00 8,4 1,7 1013,8 -
11.12.2018 15:00:00 8,9 1,9 1013,3 -
11.12.2018 14:00:00 9,2 0,0 1012,7 -
11.12.2018 13:00:00 9,0 1,1 1012,9 0,0
11.12.2018 12:00:00 8,8 1,6 1014,0 -
11.12.2018 11:00:00 8,1 1,6 1013,6 -
11.12.2018 10:00:00 7,3 0,9 1013,5 -
11.12.2018 09:00:00 6,0 -3,2 1013,4 -
11.12.2018 08:00:00 6,2 -2,3 1012,5 -
11.12.2018 07:00:00 6,5 -2,5 1012,3 0,0
11.12.2018 06:00:00 7,0 -3,1 1011,4 -
11.12.2018 05:00:00 6,6 -0,5 1011,6 -
11.12.2018 04:00:00 5,5 2,6 1012,0 -
11.12.2018 03:00:00 6,1 2,9 1012,0 -
11.12.2018 02:00:00 5,8 3,3 1011,6 -
11.12.2018 01:00:00 5,5 3,3 1011,4 0,0
11.12.2018 00:00:00 5,4 3,2 1012,0 -
10.12.2018 23:00:00 7,4 2,0 1011,9 -
10.12.2018 22:00:00 8,4 3,6 1011,6 -
10.12.2018 21:00:00 8,9 3,0 1011,3 -
10.12.2018 20:00:00 10,1 6,0 1010,9 -
10.12.2018 19:00:00 10,2 6,3 1010,8 0,0
10.12.2018 18:00:00 10,4 6,7 1010,1 -
10.12.2018 17:00:00 10,5 3,4 1009,8 -
10.12.2018 16:00:00 10,8 3,7 1009,8 -
10.12.2018 15:00:00 11,3 6,2 1009,2 -
10.12.2018 14:00:00 11,0 6,9 1009,0 -
10.12.2018 13:00:00 10,7 5,4 1008,7 0,0
10.12.2018 12:00:00 10,6 3,5 1008,9 -
10.12.2018 11:00:00 10,7 3,2 1008,8 -
10.12.2018 10:00:00 10,6 1,8 1008,3 -
10.12.2018 09:00:00 10,2 4,9 1007,5 -
10.12.2018 08:00:00 10,4 4,3 1007,2 -
10.12.2018 07:00:00 10,6 4,4 1006,7 0,0
10.12.2018 06:00:00 10,8 5,5 1006,4 -
10.12.2018 05:00:00 11,3 3,5 1005,9 -
10.12.2018 04:00:00 11,8 0,4 1005,5 -
10.12.2018 03:00:00 11,8 1,6 1005,1 -
10.12.2018 02:00:00 11,8 3,2 1004,6 -
10.12.2018 01:00:00 11,1 3,3 1004,6 0,0
10.12.2018 00:00:00 10,1 4,0 1004,5 -
09.12.2018 23:00:00 9,1 5,0 1004,3 -
09.12.2018 22:00:00 8,7 3,9 1003,8 -
09.12.2018 21:00:00 9,1 4,1 1003,5 -
09.12.2018 20:00:00 9,8 3,7 1003,5 -
09.12.2018 19:00:00 10,0 6,3 1002,8 0,0
09.12.2018 18:00:00 10,0 7,7 1002,7 -
09.12.2018 17:00:00 12,4 7,8 1002,2 -
09.12.2018 16:00:00 15,1 6,0 1001,3 -
09.12.2018 15:00:00 16,1 6,4 1001,2 -
09.12.2018 14:00:00 16,5 6,0 1001,1 -
09.12.2018 13:00:00 16,0 5,8 1001,6 0,0
09.12.2018 12:00:00 16,5 6,3 1002,0 -
09.12.2018 11:00:00 16,0 6,1 1003,1 -
09.12.2018 10:00:00 12,8 5,2 1004,1 -
09.12.2018 09:00:00 10,9 3,4 1004,7 -
09.12.2018 08:00:00 11,0 5,7 1005,4 -
09.12.2018 07:00:00 10,1 4,8 1006,6 0,0
09.12.2018 06:00:00 8,8 1,8 1006,7 -
09.12.2018 05:00:00 8,1 -1,3 1007,7 -
09.12.2018 04:00:00 7,4 -2,5 1009,1 -
09.12.2018 03:00:00 8,0 -1,9 1009,7 -
09.12.2018 02:00:00 8,4 -1,5 1010,1 -
09.12.2018 01:00:00 9,2 -0,5 1010,7 0,0
09.12.2018 00:00:00 9,9 -0,7 1011,0 -
08.12.2018 23:00:00 8,9 1,7 1011,4 -
08.12.2018 22:00:00 7,3 5,4 1011,4 -
08.12.2018 21:00:00 7,6 5,7 1011,5 -
08.12.2018 20:00:00 8,4 6,5 1011,6 -
08.12.2018 19:00:00 8,7 6,3 1011,6 0,0
08.12.2018 18:00:00 10,0 6,3 1010,9 -
08.12.2018 17:00:00 9,9 5,6 1010,3 -
08.12.2018 16:00:00 9,9 6,9 1009,3 -
08.12.2018 15:00:00 10,0 8,1 1008,3 -
08.12.2018 14:00:00 9,0 8,2 1007,8 -
08.12.2018 13:00:00 8,7 7,3 1007,5 0,0
08.12.2018 12:00:00 8,6 6,9 1007,0 -
08.12.2018 11:00:00 8,4 7,3 1006,8 -
08.12.2018 10:00:00 8,3 7,4 1006,3 -
08.12.2018 09:00:00 8,9 7,7 1005,4 -
08.12.2018 08:00:00 10,5 9,1 1003,9 -
08.12.2018 07:00:00 10,4 8,8 1003,8 0,0
08.12.2018 06:00:00 11,0 8,9 1003,7 -
08.12.2018 05:00:00 11,3 9,5 1004,3 -
08.12.2018 04:00:00 11,1 8,8 1004,1 -
08.12.2018 03:00:00 10,9 8,3 1005,1 -
08.12.2018 02:00:00 10,9 8,4 1007,3 -
08.12.2018 01:00:00 10,4 7,8 1008,5 0,0
08.12.2018 00:00:00 10,3 7,7 1009,3 -
07.12.2018 23:00:00 9,3 8,2 1010,6 -
07.12.2018 22:00:00 8,4 8,1 1011,3 -

tt = Temperatura
td = dewpoint
ppp = reduced air pressure
rr = precipitazioni

Stazioni seguenti

WeatherPro
AMSI
MeteoEarth